Starlink 1446

operational
NORAD ID: 45663 Int'l Des: 2020-035 Owner: SPXS Country: US Constellation: starlink
LEOCIRCULAR

Starlink 1446について

説明を読み込み中...

リアルタイム位置

3D地球を読み込み中...

次回通過

高度履歴

Altitude vs Time

uPlot chart will show altitude changes over time

軌道要素

1 45663U 20035G 25306.14900176 .00050368 00000-0 15197-2 0 9995
2 45663 53.0279 241.7567 0001796 56.4018 303.7154 15.33812790300039
Epoch: Nov 2, 2025 • Age: 27 hours

現在のステータス

高度 464.4 km
速度 7.64 km/s
衛星直下点 28.02°N, 122.51°E
打ち上げ日 Jun 4, 2020
運用期間 5.4 years
タイプ internet

技術仕様

分類 Payload
質量 260.00 kg
乾燥質量 248.00 kg
総質量 260.00 kg
長さ 0.20 m
直径 2.80 m
スパン 9.00 m
形状 Box + pan
製造者 SPXS
バスタイプ Starlink
フェーズステータス In Orbit
所有者/国 SPXS/US

大規模コンステレーション

Loading constellations...